Tracking 25378 objects as of 22-Jan-2022
HD Live streaming from Space Station
objects crossing your sky now

STARLINK-3045

Track STARLINK-3045 now!
10-day predictions
STARLINK-3045 is classified as:


NORAD ID: 49173
Int'l Code: 2021-082AV
Perigee: 370.2 km
Apogee: 375.1 km
Inclination: 70.0 °
Period: 91.9 minutes
Semi major axis: 6743 km
RCS: Unknown
Launch date: September 14, 2021
Source: United States (US)
Launch site: AIR FORCE WESTERN TEST RANGE (AFWTR)
aabbcc
Your satellite tracking list
Your tracking list is empty




NASA's NSSDC Master Catalog

Two Line Element Set (TLE):
1 49173U 21082AV  22021.58334491 -.00658426  00000-0 -64857-2 0  9996
2 49173  70.0001 122.6066 0003702 290.6678 244.8028 15.67691680 20422
Source of the keplerian elements: AFSPC